Location: Observatoire de Paris
(48.8363°N, 2.3365°E)
Time: 04:46:20
(UTC+01:00)

METEOR M2 - Pass Details

Date: 27 September 2021
Orbit: 819 x 826 km, 98.5° (Epoch: 19 October)

Event Time Altitude Azimuth Distance (km) Brightness Sun altitude
Rises 21:14:44 0° 226° (SW) 3,342 ? -25.7°
Reaches altitude 10° 21:19:19 10° 262° (W) 2,418 ? -26.4°
Maximum altitude 21:20:35 11° 276° (W) 2,365 ? -26.5°
Drops below altitude 10° 21:21:51 10° 290° (WNW) 2,423 ? -26.7°
Sets 21:26:30 0° 327° (NNW) 3,365 ? -27.4°
